EST,Max TemperatureF,Mean TemperatureF,Min TemperatureF,Max Dew PointF,MeanDew PointF,Min DewpointF,Max Humidity, Mean Humidity, Min Humidity, Max Sea Level PressureIn, Mean Sea Level PressureIn, Min Sea Level PressureIn, Max VisibilityMiles, Mean VisibilityMiles, Min VisibilityMiles, Max Wind SpeedMPH, Mean Wind SpeedMPH, Max Gust SpeedMPH,PrecipitationIn, CloudCover, Events, WindDirDegrees
2012-11-1,73,50,37,40,37,33,89,65,33,29.89,29.81,29.74,10,10,7,13,4,18,0.00,1,,268
2012-11-2,66,52,37,42,36,29,86,62,27,29.98,29.90,29.81,10,10,10,13,5,21,0.00,1,,253
2012-11-3,61,48,37,40,35,31,93,65,35,30.11,30.06,29.99,10,10,5,14,4,,0.00,0,,307
2012-11-4,73,56,39,54,43,37,89,72,49,30.11,30.01,29.93,10,9,2,12,5,34,0.21,2,Rain-Thunderstorm,29
2012-11-5,57,50,44,42,38,34,83,66,42,30.14,30.06,29.99,10,10,10,13,8,21,0.00,2,,16
2012-11-6,46,42,39,43,38,34,87,80,71,30.12,29.99,29.87,10,9,4,16,9,21,0.43,6,Rain,358
2012-11-7,54,46,39,41,38,33,89,74,58,29.94,29.86,29.81,10,9,4,15,11,20,0.01,7,Rain,333
2012-11-8,61,48,35,34,30,22,86,60,24,30.10,30.02,29.94,10,10,10,14,7,18,0.00,1,,287
2012-11-9,61,47,33,39,31,26,89,61,26,30.30,30.23,30.11,10,10,10,9,3,,0.00,0,,312
2012-11-10,68,52,37,44,39,34,90,70,33,30.43,30.37,30.30,10,10,7,9,1,,0.00,0,,163
2012-11-11,73,57,41,55,46,37,93,79,49,30.52,30.46,30.42,10,7,0,7,1,,0.00,1,Fog,118
2012-11-12,75,64,53,63,58,50,94,84,58,30.44,30.32,30.24,10,7,0,15,4,24,0.04,4,Fog-Rain,121
2012-11-13,66,56,46,63,54,41,94,90,82,30.37,30.23,30.18,10,4,0,17,3,24,0.06,6,Fog-Rain,353
2012-11-14,54,49,44,42,40,37,87,74,59,30.43,30.37,30.34,10,9,4,16,13,23,0.04,8,Rain,18
2012-11-15,52,48,44,47,43,36,89,79,71,30.33,30.24,30.20,10,10,5,14,9,21,0.29,8,Rain,360
2012-11-16,59,52,45,45,41,35,87,70,46,30.36,30.28,30.22,10,10,10,14,10,18,0.00,3,,4
2012-11-17,57,49,41,46,41,34,77,71,62,30.40,30.38,30.35,10,10,10,18,10,26,0.00,3,,15
2012-11-18,59,55,51,54,50,45,88,83,72,30.36,30.28,30.22,10,7,2,22,14,28,0.68,8,Rain,17
2012-11-19,57,55,52,51,49,47,86,80,75,30.21,30.16,30.11,10,9,4,21,16,30,0.00,8,Rain,2
2012-11-20,57,54,51,48,47,46,86,80,72,30.13,30.09,30.05,10,9,5,15,11,21,0.00,7,,1
2012-11-21,62,54,45,45,42,38,86,68,50,30.15,30.09,30.06,10,10,7,16,9,21,0.00,2,,5
2012-11-22,62,52,42,44,40,36,82,67,52,30.18,30.14,30.10,10,10,10,16,10,24,0.00,1,,353
2012-11-23,66,52,37,44,38,33,89,63,30,30.16,30.04,29.88,10,10,9,8,3,,0.00,0,,253
2012-11-24,54,46,37,43,29,20,80,51,31,30.14,29.99,29.88,10,10,10,18,10,18,0.00,1,,320
2012-11-25,53,40,28,32,23,18,82,54,25,30.22,30.15,30.10,10,10,10,7,4,,0.00,0,,271
2012-11-26,64,50,37,38,33,24,86,62,23,30.25,30.20,30.14,10,10,9,9,4,,0.00,0,,221
2012-11-27,64,50,36,47,40,33,89,72,34,30.23,30.18,30.13,10,10,6,14,2,,0.04,5,Rain,275
2012-11-28,53,44,32,44,36,29,88,71,43,30.41,30.29,30.20,10,7,2,18,9,21,0.00,3,,353
2012-11-29,55,42,28,34,29,24,88,69,33,30.52,30.45,30.41,10,8,5,6,1,,0.00,0,,128
2012-11-30,61,46,30,38,32,26,89,72,34,30.45,30.39,30.34,10,9,5,6,1,,0.00,0,,129